Wind_Speed
63 63 61 62 62 71 69 63 60 52 48 45 39 37 43 40 40 39 32 30 24 20 19 14 16 27 16 15 12 13 17 12 12 12 14 14 17 21 20 18 23 26 29 29
65 63 66 65 64 69 69 66 62 57 55 47 44 42 38 36 29 41 36 33 33 29 24 22 19 28 19 13 8 11 16 11 9 11 13 10 15 21 17 12 19 22 25 26
70 70 68 67 65 64 67 65 63 60 59 60 54 46 33 29 39 36 34 35 33 32 27 27 24 26 19 14 9 7 11 15 10 8 11 11 7 8 14 15 17 19 21 24
76 74 70 68 67 64 63 67 72 69 66 63 60 58 64 45 29 30 32 42 41 40 39 39 33 22 18 14 13 9 6 13 12 8 10 8 10 11 10 11 14 16 17 20
80 78 74 69 68 67 67 71 72 73 75 68 65 63 66 54 44 40 18 15 32 35 32 32 28 23 19 15 15 13 10 7 11 12 4 6 9 9 8 13 22 12 12 14
75 81 79 75 71 71 74 71 73 70 71 70 69 68 63 58 50 50 50 50 35 30 28 31 26 27 22 19 17 18 13 13 10 10 10 2 7 8 1 8 4 8 9 10
75 77 82 81 78 75 74 73 70 71 68 71 72 73 65 58 41 55 60 47 43 34 33 40 35 31 24 24 21 21 17 15 10 9 8 8 2 5 3 5 2 7 5 7
71 76 76 86 83 78 73 75 72 67 65 70 75 80 72 64 64 45 45 50 48 43 34 27 31 37 32 27 26 23 20 17 16 13 10 7 5 8 10 8 5 3 5 6
70 71 78 83 88 87 79 75 72 74 72 73 84 79 72 68 68 72 62 52 48 44 35 35 34 29 32 37 31 25 23 21 19 18 16 14 10 9 10 10 8 5 4 4
71 70 74 74 85 86 82 78 79 79 81 79 84 70 78 75 75 66 59 56 49 41 39 35 36 27 24 28 30 32 27 25 23 22 21 20 16 13 10 14 13 9 7 4
77 72 70 76 76 86 89 82 79 81 82 80 83 78 79 80 74 73 71 63 56 53 44 41 34 19 15 22 22 36 31 29 28 26 24 26 24 22 18 13 15 13 12 10
85 77 72 74 75 78 89 90 91 89 80 83 87 85 71 74 73 79 76 71 65 59 55 64 62 44 24 26 26 10 30 33 33 31 25 27 31 28 25 24 17 16 15 18
79 78 76 73 76 79 80 91 92 89 89 91 89 88 75 74 71 77 78 75 72 70 70 67 69 67 68 59 42 30 29 17 27 20 27 28 30 33 31 29 27 22 18 21
79 83 82 77 81 82 82 89 97 97 94 90 98 96 88 88 73 77 74 74 73 72 71 70 68 68 69 62 59 55 38 32 45 35 39 35 31 32 32 32 32 29 25 23
82 84 86 81 81 79 82 83 96 101 98 103 104 101 95 90 78 75 73 71 72 73 74 74 74 71 70 69 67 63 54 42 36 39 27 10 27 35 37 37 34 33 30 26
87 86 82 78 78 72 73 83 90 101 105 112 107 103 94 90 80 79 77 73 72 72 72 73 75 74 73 71 69 67 65 52 43 45 57 38 38 27 30 36 37 35 34 29
91 91 86 84 84 83 82 82 84 83 105 118 108 95 103 94 91 84 84 81 79 77 75 73 73 72 72 70 67 66 66 64 64 54 52 50 57 50 25 37 39 41 39 34
83 85 87 90 89 84 85 84 86 88 101 116 113 110 101 93 89 87 88 89 87 84 81 78 76 74 73 72 70 68 67 66 67 67 64 55 56 60 61 55 50 47 44 39
67 71 74 78 81 82 82 84 89 93 106 105 111 112 106 101 97 96 97 99 95 92 88 84 81 78 75 74 73 71 70 67 65 65 65 66 66 64 59 57 53 47 46 42
62 67 70 73 75 79 87 84 87 92 97 99 108 113 111 110 108 104 101 98 97 95 92 90 89 85 83 80 79 76 74 71 70 67 64 63 63 64 61 58 56 55 52 50
62 65 67 72 75 82 80 81 86 91 98 94 102 111 113 115 113 105 101 101 102 102 99 97 94 92 90 88 86 83 80 77 76 74 71 67 65 64 63 62 60 57 56 54
62 66 69 73 76 80 74 77 82 85 90 89 98 105 114 120 118 110 107 108 106 104 102 101 99 98 96 94 91 89 88 86 84 81 78 76 72 70 68 66 64 63 62 60
62 64 69 72 75 74 72 73 77 84 89 90 91 100 113 121 120 116 114 113 112 111 109 105 103 101 98 97 96 95 92 90 88 86 84 82 80 77 75 74 71 69 67 67
60 62 71 74 75 76 74 79 84 86 84 83 88 94 104 112 115 117 118 117 115 115 115 113 110 108 106 104 102 100 98 96 94 93 91 88 86 83 81 78 77 75 74 71
59 62 68 70 72 76 78 79 82 84 83 86 85 87 94 101 109 115 118 121 122 119 119 119 117 116 114 112 110 108 106 103 101 99 98 96 93 90 87 83 81 79 79 77
56 60 64 68 68 72 75 78 83 87 87 86 87 87 88 93 98 105 113 120 124 124 122 122 123 123 121 119 117 115 114 112 110 108 107 104 102 99 95 93 90 88 86 83
Wind_Direction
217 216 215 217 217 218 219 220 224 223 227 219 216 217 235 238 236 228 241 244 241 251 248 279 306 316 325 347 5 18 28 56 59 47 37 43 55 62 54 55 47 52 55 54
216 216 216 216 218 218 217 219 222 225 227 223 216 208 216 246 221 220 235 239 242 248 244 256 287 305 305 329 355 18 17 42 64 64 50 37 55 52 70 26 52 53 55 56
214 217 216 217 217 217 218 218 220 222 230 224 222 212 220 219 223 228 233 242 239 245 237 264 278 290 293 314 317 356 21 17 39 73 65 50 69 26 56 51 58 53 55 57
216 217 217 217 217 217 216 216 214 215 216 222 225 219 224 233 246 237 241 247 237 240 245 261 275 276 278 298 306 309 346 359 15 29 83 66 56 38 37 47 60 51 52 55
218 217 216 217 218 218 216 219 216 215 222 222 225 225 232 236 240 240 223 205 222 239 249 258 264 263 267 279 288 293 308 340 355 15 70 90 80 52 19 49 25 46 51 57
218 218 216 216 217 217 219 221 220 218 221 224 224 227 230 233 235 242 236 245 253 249 251 255 248 264 267 268 275 279 291 308 325 345 4 112 119 153 316 81 85 66 63 68
221 219 218 216 217 218 218 221 220 220 219 221 223 227 226 227 227 226 233 241 242 249 257 245 261 262 266 266 266 265 277 286 299 312 339 356 183 156 172 145 131 97 86 86
224 218 218 217 217 219 217 221 221 222 224 222 222 225 224 223 215 212 233 229 241 243 239 272 268 272 270 264 258 256 268 274 281 286 299 313 272 206 195 221 228 153 90 82
224 222 219 218 217 217 218 218 220 221 224 224 225 222 220 221 226 233 240 238 243 247 244 233 270 258 268 262 257 254 263 267 272 281 287 290 289 251 220 221 225 208 161 149
228 227 221 218 219 218 218 217 218 221 224 226 230 223 219 219 220 222 222 220 228 229 235 255 258 256 270 271 243 259 254 263 266 274 282 286 284 281 248 230 232 213 199 219
228 226 223 222 219 218 216 216 221 223 223 227 234 228 222 222 222 221 222 218 218 217 223 200 186 253 225 259 281 253 247 259 262 263 271 279 282 280 279 251 241 235 205 225
223 226 225 225 222 219 216 216 219 219 221 229 231 228 226 222 222 223 224 223 219 215 207 225 230 217 201 174 251 291 273 268 270 262 261 268 276 279 281 283 267 243 228 224
225 228 224 223 223 221 218 217 221 222 221 224 228 232 227 225 222 225 223 223 222 219 223 229 232 232 233 230 227 229 232 258 274 251 272 265 261 276 282 279 280 277 246 229
223 225 225 223 224 220 217 218 218 218 223 225 230 228 222 226 222 227 226 224 223 223 224 226 226 229 232 231 233 225 227 231 230 278 280 264 256 269 267 271 269 272 273 251
225 226 227 222 225 221 221 221 219 220 220 223 228 231 228 229 222 229 230 228 226 224 226 227 229 229 232 233 233 232 228 221 214 222 218 238 298 267 258 255 259 263 264 269
228 230 232 231 230 227 225 223 221 222 221 225 226 231 228 231 226 228 231 230 231 229 228 228 229 231 231 230 230 229 226 219 215 216 219 227 212 270 255 250 252 252 256 259
230 231 233 233 232 228 228 226 222 224 228 228 225 228 231 228 226 225 231 231 231 231 230 230 229 231 233 235 234 232 228 225 225 226 220 214 217 230 246 247 244 246 244 245
228 231 231 233 233 232 230 226 224 223 225 227 224 227 233 230 231 226 231 233 232 233 233 232 231 231 231 231 233 233 231 228 225 226 226 224 224 226 227 243 244 244 246 245
220 222 223 227 228 224 224 226 222 223 227 227 225 226 227 231 228 228 228 232 231 232 234 235 235 234 234 235 235 235 236 237 234 230 230 230 228 230 230 231 233 239 240 246
222 222 220 221 223 223 221 221 224 226 228 228 229 226 225 228 230 228 230 231 235 235 235 235 236 236 236 237 238 238 237 237 238 238 235 234 234 235 233 232 233 235 236 238
221 223 223 223 222 224 221 222 224 227 229 226 230 229 226 228 232 230 230 232 234 236 235 237 237 238 238 238 238 239 240 239 239 239 239 237 237 237 237 234 234 235 235 236
224 224 224 224 224 225 221 224 228 230 230 229 230 227 230 228 228 230 231 233 234 236 237 237 237 237 238 239 239 239 239 240 240 240 240 241 239 238 238 238 236 235 235 236
228 226 228 228 228 228 221 225 227 230 230 231 231 232 232 231 230 228 231 233 235 236 237 238 239 239 239 239 239 239 239 240 241 241 241 241 242 241 240 240 239 238 236 237
229 227 230 229 230 230 226 224 227 230 230 230 232 234 234 233 234 233 231 233 236 238 237 238 240 241 241 241 241 241 241 241 241 241 242 241 242 241 241 240 240 241 240 238
230 228 230 231 230 232 230 229 230 232 232 233 231 232 235 237 237 235 233 233 235 237 239 241 241 241 242 243 243 243 244 243 243 243 243 243 243 243 243 242 241 241 241 240
234 232 232 233 232 232 232 231 231 232 234 234 234 233 234 236 238 239 238 236 235 236 238 240 242 242 242 243 244 245 245 246 245 245 245 245 245 245 244 243 242 241 241 241
Height
10879 10890 10900 10904 10912 10921 10932 10946 10955 10969 10971 10983 10989 10992 10991 10994 10997 11001 11006 11011 11015 11019 11021 11022 11022 11022 11022 11020 11019 11017 11014 11010 11008 11006 11005 11005 11007 11009 11011 11006 11001 10997 10993 10992
10868 10878 10884 10893 10901 10912 10925 10938 10947 10960 10967 10978 10979 10983 10986 10985 10987 10994 11001 11006 11011 11014 11018 11020 11021 11022 11023 11022 11021 11020 11017 11013 11011 11009 11010 11007 11006 11007 11006 11009 11004 11002 11000 10999
10853 10859 10870 10883 10892 10902 10917 10930 10940 10946 10952 10963 10967 10977 10969 10972 10980 10988 10993 11000 11005 11010 11014 11017 11020 11022 11023 11023 11024 11022 11020 11017 11013 11014 11013 11011 11010 11012 11009 11011 11009 11009 11009 11008
10838 10847 10861 10872 10882 10893 10907 10908 10918 10930 10936 10951 10956 10960 10959 10965 10977 10981 10989 10993 10999 11005 11009 11014 11018 11021 11023 11024 11024 11024 11022 11020 11016 11017 11017 11014 11015 11017 11017 11018 11016 11014 11015 11014
10824 10836 10848 10860 10871 10882 10888 10891 10908 10918 10924 10939 10944 10953 10950 10966 10975 10982 10988 10986 10995 11002 11006 11009 11013 11016 11019 11023 11024 11025 11024 11022 11020 11018 11020 11019 11019 11018 11020 11022 11023 11020 11019 11018
10809 10820 10833 10844 10854 10865 10870 10881 10895 10907 10917 10928 10935 10944 10951 10963 10973 10979 10983 10985 10989 10994 11000 11003 11007 11012 11016 11019 11021 11023 11025 11024 11023 11020 11020 11022 11022 11019 11019 11017 11021 11020 11022 11021
10792 10805 10817 10830 10839 10848 10863 10870 10883 10895 10908 10915 10920 10931 10947 10956 10970 10954 10967 10978 10986 10993 10997 11001 11005 11008 11012 11014 11016 11019 11023 11024 11024 11023 11022 11024 11022 11019 11016 11016 11017 11019 11022 11022
10773 10789 10802 10812 10826 10839 10852 10860 10874 10885 10891 10899 10902 10910 10934 10946 10957 10952 10960 10971 10983 10993 10995 11000 11001 11004 11006 11009 11012 11015 11019 11024 11024 11025 11025 11026 11025 11022 11022 11017 11019 11018 11023 11023
10759 10774 10782 10797 10809 10817 10836 10848 10863 10867 10870 10877 10869 10902 10927 10936 10941 10942 10957 10966 10978 10989 10995 11003 10997 10999 11004 11008 11011 11017 11017 11022 11025 11025 11026 11028 11029 11024 11020 11020 11018 11022 11023 11021
10749 10761 10773 10784 10791 10813 10827 10836 10841 10851 10852 10861 10858 10893 10910 10916 10923 10941 10950 10955 10966 10975 10985 10985 10980 10994 10995 11002 11005 11007 11012 11016 11022 11025 11027 11028 11029 11029 11024 11021 11019 11022 11022 11021
10730 10748 10762 10767 10781 10795 10806 10824 10835 10840 10841 10847 10848 10867 10892 10905 10918 10926 10931 10943 10956 10965 10974 10982 10982 10991 10990 10992 10995 10988 10996 11005 11012 11019 11023 11026 11029 11029 11026 11020 11017 11019 11020 11018
10707 10731 10745 10754 10766 10777 10789 10805 10808 10815 10836 10836 10834 10849 10878 10889 10899 10905 10919 10934 10941 10953 10957 10969 10975 10986 10985 10986 10979 10973 10995 10997 11003 11006 11012 11020 11025 11028 11027 11022 11015 11013 11020 11016
10711 10720 10731 10743 10751 10761 10778 10789 10798 10813 10814 10811 10818 10834 10863 10874 10882 10887 10903 10916 10929 10937 10941 10953 10965 10971 10975 10982 10986 10998 10999 11000 10995 10993 11003 11008 11014 11021 11024 11022 11017 11012 11010 11015
10695 10701 10710 10726 10727 10744 10754 10767 10778 10789 10796 10806 10792 10813 10834 10844 10868 10869 10888 10902 10915 10923 10929 10934 10949 10961 10966 10967 10976 10984 10991 10993 10997 10996 10999 10999 11006 11005 11011 11016 11015 11012 11008 11006
10677 10685 10690 10705 10716 10729 10746 10755 10761 10773 10787 10767 10770 10789 10815 10832 10858 10862 10875 10886 10897 10908 10916 10921 10928 10940 10951 10961 10968 10977 10984 10987 10991 10996 11001 11003 11002 10997 10997 11000 11006 11009 11005 11003
10661 10667 10681 10698 10704 10720 10726 10731 10741 10750 10762 10746 10760 10772 10807 10821 10847 10850 10858 10870 10881 10891 10901 10909 10915 10921 10928 10939 10950 10961 10972 10976 10979 10983 10988 11003 10990 10975 10989 10990 10993 11001 11001 10999
10644 10651 10665 10678 10682 10689 10703 10714 10729 10740 10734 10727 10757 10773 10780 10804 10817 10834 10836 10849 10859 10870 10880 10891 10901 10908 10913 10919 10928 10938 10949 10959 10966 10970 10972 10980 10984 10982 10981 10977 10979 10990 10992 10991
10625 10636 10648 10654 10663 10678 10686 10699 10713 10718 10701 10696 10742 10753 10772 10794 10806 10820 10822 10827 10838 10848 10859 10871 10881 10890 10898 10903 10910 10918 10927 10938 10948 10956 10965 10968 10968 10970 10969 10969 10973 10981 10984 10982
10609 10616 10625 10634 10647 10657 10669 10678 10684 10685 10668 10700 10724 10739 10758 10767 10781 10790 10794 10798 10812 10826 10839 10851 10860 10871 10880 10888 10895 10902 10908 10916 10925 10935 10943 10951 10957 10959 10961 10963 10966 10969 10970 10971
10596 10601 10610 10617 10628 10638 10638 10657 10668 10667 10672 10689 10695 10718 10739 10743 10746 10763 10777 10789 10798 10808 10819 10830 10839 10850 10859 10868 10875 10883 10891 10899 10905 10912 10921 10928 10934 10939 10944 10948 10950 10953 10955 10958
10583 10589 10598 10602 10610 10611 10633 10642 10644 10645 10655 10678 10680 10696 10718 10721 10727 10754 10766 10769 10773 10782 10794 10804 10816 10826 10836 10844 10853 10862 10870 10879 10884 10892 10899 10907 10913 10919 10924 10929 10934 10937 10941 10945
10569 10575 10582 10585 10592 10597 10621 10625 10629 10639 10642 10654 10655 10676 10684 10694 10700 10724 10740 10744 10753 10760 10770 10780 10790 10801 10811 10821 10831 10839 10846 10855 10861 10870 10878 10885 10893 10900 10905 10911 10917 10922 10926 10931
10554 10565 10568 10574 10579 10590 10606 10612 10611 10610 10621 10632 10643 10651 10660 10663 10680 10708 10716 10720 10727 10739 10746 10755 10765 10775 10786 10796 10803 10812 10822 10830 10839 10847 10855 10863 10870 10878 10885 10891 10898 10904 10910 10915
10538 10547 10546 10555 10562 10570 10583 10588 10586 10594 10607 10617 10625 10633 10637 10645 10659 10679 10696 10701 10704 10712 10722 10731 10740 10749 10758 10767 10776 10786 10795 10805 10814 10822 10829 10837 10845 10853 10862 10871 10877 10885 10892 10899
10522 10528 10528 10536 10546 10553 10560 10568 10575 10578 10589 10592 10604 10611 10618 10624 10633 10647 10662 10674 10680 10687 10695 10704 10714 10722 10730 10738 10748 10758 10767 10777 10786 10795 10801 10810 10820 10829 10838 10848 10857 10864 10869 10876
10504 10509 10514 10519 10527 10533 10540 10549 10554 10558 10567 10575 10582 10591 10598 10603 10611 10618 10632 10644 10653 10660 10669 10677 10684 10693 10702 10710 10717 10728 10737 10746 10756 10765 10773 10782 10792 10802 10812 10822 10831 10839 10846 10855